Lovelock, NV

8:45 PM PDT on July 24, 2016 (GMT -0700)
Derby

Weather History for KLOL - December, 2013

Change the Weather History Date:

Monday, December 9, 2013

  Actual Average Record
Temperature  
Mean Temperature 0 °F -  
Max Temperature 17 °F 44 °F 63 °F (1981)
Min Temperature -16 °F 15 °F -16 °F (2013)
Degree Days  
Heating Degree Days 64    
Moisture  
Dew Point -7 °F    
Average Humidity 74    
Maximum Humidity 83    
Minimum Humidity 59    
Precipitation  
Precipitation 0.00 in - - ()
Sea Level Pressure  
Sea Level Pressure 30.77 in    
Wind  
Wind Speed 3 mph (ESE)    
Max Wind Speed 6 mph    
Max Gust Speed -    
Visibility 10 miles    
Events      
Averages and records for this station are not official NWS values.
T = Trace of Precipitation, MM = Missing Value Source: NWS Daily Summary

Daily Weather History Graph

Daily Weather History Graph

Search for Another Location

Airport or City:

Trip Planner

Search our weather history database for the weather conditions in past years. The results will help you decide how hot, cold, wet, or windy it might be!

Date:

Astronomy

Dec. 09, 2013 Rise Set
Actual Time 7:04 AM PST 4:28 PM PST
Civil Twilight 6:34 AM PST 4:59 PM PST
Nautical Twilight 6:00 AM PST 5:33 PM PST
Astronomical Twilight 5:27 AM PST 6:06 PM PST
Moon 12:00 PM PST (12/9) No Moon Set
Length of Visible Light 10h 24m
Length of Day
9h 23m
First Quarter, 52% of the Moon is Illuminated
Dec 9
First Quarter
Dec 17
Full
Dec 25
Last Quarter
Jan 1
New
Jan 7
First Quarter

Hourly Weather History & Observations

Time (PST) Temp. Windchill Dew Point Humidity Pressure Visibility Wind Dir Wind Speed Gust Speed Precip Events Conditions
12:53 AM -11.0 °F -24.6 °F -16.1 °F 78% 30.65 in 10.0 mi ESE 5.8 mph - N/A   Clear
1:53 AM -9.9 °F -21.5 °F -16.1 °F 74% 30.68 in 10.0 mi WNW 4.6 mph - N/A   Clear
2:53 AM -13.0 °F -22.7 °F -18.0 °F 78% 30.71 in 10.0 mi ESE 3.5 mph - N/A   Clear
3:53 AM -11.9 °F - -18.0 °F 74% 30.72 in 10.0 mi Calm Calm - N/A   Clear
4:53 AM -13.0 °F -27.0 °F -18.9 °F 75% 30.75 in 10.0 mi East 5.8 mph - N/A   Clear
5:53 AM -13.0 °F -27.0 °F -18.9 °F 75% 30.79 in 10.0 mi WSW 5.8 mph - N/A   Clear
6:53 AM -16.1 °F -26.2 °F -20.9 °F 79% 30.85 in 10.0 mi South 3.5 mph - N/A   Clear
7:53 AM -8.0 °F - -13.0 °F 79% 30.84 in 10.0 mi Calm Calm - N/A   Clear
8:53 AM -4.0 °F - -8.0 °F 83% 30.85 in 10.0 mi Calm Calm - N/A   Clear
9:53 AM 3.0 °F - -4.0 °F 73% 30.84 in 10.0 mi Calm Calm - N/A   Clear
10:53 AM 7.0 °F - -0.0 °F 73% 30.83 in 10.0 mi Calm Calm - N/A   Clear
11:53 AM 10.9 °F - 1.0 °F 64% 30.81 in 10.0 mi Calm Calm - N/A   Clear
12:53 PM 12.9 °F 6.9 °F 3.9 °F 67% 30.80 in 10.0 mi Variable 3.5 mph - N/A   Clear
1:53 PM 15.1 °F - 3.9 °F 61% 30.78 in 10.0 mi Calm Calm - N/A   Clear
2:53 PM 17.1 °F 8.7 °F 5.0 °F 59% 30.76 in 10.0 mi East 5.8 mph - N/A   Clear
3:53 PM 15.1 °F 7.7 °F 5.0 °F 64% 30.74 in 10.0 mi East 4.6 mph - N/A   Clear
4:53 PM 10.9 °F - 3.9 °F 73% 30.76 in 10.0 mi Calm Calm - N/A   Clear
5:53 PM 8.1 °F - 1.9 °F 76% 30.77 in 10.0 mi Calm Calm - N/A   Clear
6:53 PM 5.0 °F - -0.0 °F 80% 30.80 in 10.0 mi Calm Calm - N/A   Clear
7:53 PM 1.0 °F -8.7 °F -4.0 °F 79% 30.78 in 10.0 mi NNE 4.6 mph - N/A   Clear
8:53 PM -0.0 °F - -5.1 °F 79% 30.77 in 10.0 mi Calm Calm - N/A   Clear
9:53 PM -5.1 °F -15.8 °F -9.0 °F 83% 30.78 in 10.0 mi SSE 4.6 mph - N/A   Clear
10:53 PM -5.1 °F - -9.9 °F 80% 30.76 in 10.0 mi Calm Calm - N/A   Clear
11:53 PM -4.0 °F - -9.0 °F 79% 30.75 in 10.0 mi Calm Calm - N/A   Clear